[[{"header":{"parameterUnit":"m.s-1","parameterCategory":1,"la1":30.2991,"la2":30.254,"lo1":-89.0895,"lo2":-89.0444,"dy":0.0017,"dx":0.0017,"nx":28,"ny":28,"refTime":"2023-08-08T21:00:00:Z","depth":0,"parameterNumber":2,"parameterNumberName":"U-component_of_WINDS"},"data":[0,0,0,0,0,0,0,0,0,0,0,0,0,0,0,0,0,0,0,0,0,0,0,0,0,0,0,0,0,0,0,0,0,0,0,0,0,0,0,0,0,0,0,0,0,0,0,0,0,0,0,0,0,0,0,0,0,0,2.7614,2.7615,0,2.7698,2.7699,2.77,2.7715,2.7715,2.7714,2.7713,2.7799,2.7802,2.7805,0,0,0,0,0,0,0,0,0,0,0,0,0,2.7467,2.7469,2.7614,2.7615,2.7616,2.7698,2.7699,2.7701,2.7716,2.7715,2.7714,2.7713,2.7798,2.7802,2.7805,0,0,0,0,0,0,0,0,0,0,0,0,0,2.7539,2.747,2.7614,2.7634,2.7636,2.7698,2.7699,2.7701,2.7716,2.7715,2.7714,2.7713,2.7797,2.7801,2.7806,2.7854,0,0,2.7819,2.7821,0,0,0,0,0,0,0,0,2.7535,2.7544,2.763,2.7632,2.7635,2.7695,2.7679,2.7752,2.7716,2.7686,2.7713,2.7712,2.7765,2.7772,2.779,2.7858,2.7861,2.7819,2.7822,2.7824,2.7825,0,0,0,0,0,0,0,2.753,2.7541,2.7647,2.7631,2.7634,2.7638,2.7648,2.7693,2.773,2.7688,2.7689,2.7699,2.7767,2.7786,2.7793,2.7862,2.7819,2.7823,2.7826,2.7828,2.7975,2.7976,0,0,0,0,0,0,2.7521,2.7536,2.7645,2.765,2.7581,2.7642,2.7652,2.7677,2.773,2.7737,2.77,2.77,2.7779,2.7787,2.7796,2.7856,2.7824,2.7828,2.7831,2.7974,2.7975,2.7977,0,0,0,0,0,0,2.7518,2.7531,2.7641,2.7594,2.7608,2.7646,2.7674,2.7679,2.7699,2.7739,2.7746,2.7713,2.7779,2.7789,2.784,2.786,2.783,2.7834,2.7972,2.7974,2.7976,2.7978,0,0,0,0,0,0,2.7514,2.7529,2.7548,2.7594,2.761,2.7684,2.7675,2.7682,2.7706,2.7707,2.7753,2.7759,2.7779,2.7833,2.7844,2.7865,2.7838,2.7971,2.7973,2.7975,2.7976,2.7979,2.7982,0,0,0,0,0,2.7508,2.7544,2.7549,2.7562,2.7634,2.7685,2.7694,2.7716,2.7708,2.7727,2.7753,2.7758,2.7856,2.7838,2.785,2.7873,2.797,2.7973,2.7975,2.7974,2.7979,2.7982,0,0,0,0,0,0,2.7499,2.7551,2.7556,2.7608,2.7642,2.7687,2.7712,2.7719,2.7756,2.7755,2.778,2.779,2.7839,2.7861,2.7841,2.7923,2.7912,2.7918,2.7907,2.7911,2.7915,2.7908,2.7841,0,0,0,0,0,2.7503,2.7539,2.7583,2.7624,2.7641,2.7673,2.7696,2.771,2.7746,2.7761,2.779,2.7825,2.7864,2.7889,2.7926,2.7979,2.799,2.8001,2.8004,2.8007,2.8011,2.8042,2.8048,2.7986,2.7986,2.7986,0,0,2.7511,2.7544,2.7565,2.7623,2.7651,2.7689,2.7685,2.7725,2.7754,2.7767,2.7816,2.7839,2.788,2.7932,2.7956,2.7952,2.8031,2.801,2.8012,2.8015,2.8046,2.8052,2.8057,2.7988,2.7988,2.7988,0,0,2.7546,2.7574,2.7613,2.7641,2.7684,2.7706,2.7715,2.776,2.7776,2.7826,2.7837,2.7871,2.7937,2.7966,2.7989,2.8037,2.8044,2.8049,2.8065,2.8096,2.81,2.8105,2.8123,2.8129,2.8053,2.8053,2.8053,0,2.7551,2.7608,2.7631,2.7671,2.7697,2.7711,2.7751,2.7777,2.783,2.7848,2.7842,2.7926,2.7954,2.8014,2.8026,2.8044,2.8056,2.8044,2.8098,2.8103,2.8107,2.8125,2.8131,2.8054,2.8054,2.8054,2.8054,0,2.7613,2.7653,2.7679,2.7731,2.7759,2.7798,2.7828,2.7854,2.7866,2.7888,2.794,2.7975,2.8021,2.8036,2.8047,2.8098,2.8094,2.8093,2.8082,2.8113,2.813,2.8137,2.8054,2.8054,2.8054,2.8054,0,0,2.7644,2.7709,2.7718,2.7742,2.7791,2.7822,2.7863,2.7909,2.7931,2.7967,2.8003,2.8059,2.8059,2.8085,2.81,2.8127,2.8164,2.8123,2.8124,2.813,2.8223,2.8225,2.8232,2.8169,2.817,2.8171,2.822,0,2.7685,2.7758,2.7781,2.7843,2.788,2.7895,2.7931,2.7965,2.7988,2.8023,2.8048,2.8088,2.8084,2.81,2.8127,2.8154,2.8183,2.8151,2.8203,2.8204,2.8192,2.8241,2.8242,2.8286,2.8227,2.8228,2.8229,0,2.7743,2.7781,2.7847,2.7893,2.7909,2.7941,2.7985,2.8019,2.8058,2.8073,2.8104,2.8117,2.8161,2.8148,2.8209,2.8186,2.8209,2.8226,2.8228,2.8234,2.8219,2.8249,2.8301,2.8308,2.824,2.8239,2.8238,0,2.776,2.7828,2.7876,2.7896,2.7951,2.7973,2.7997,2.8035,2.8062,2.81,2.8118,2.8161,2.8185,2.8218,2.8243,2.8231,2.8303,2.8292,2.8317,2.8316,2.8332,2.833,2.8389,2.8345,2.8345,2.8345,2.8345,0,2.7804,2.7844,2.7885,2.7915,2.796,2.7986,2.803,2.8055,2.8089,2.8125,2.814,2.8173,2.8204,2.8241,2.8261,2.8309,2.832,2.8333,2.8338,2.8332,2.8331,2.8348,2.8345,2.8347,2.8346,2.8346,2.8346,0,2.7831,2.786,2.7914,2.7961,2.7974,2.8006,2.8047,2.8076,2.81,2.8144,2.8156,2.8193,2.8238,2.8266,2.8323,2.8336,2.839,2.8394,2.8377,2.8379,2.8403,2.8401,2.8476,2.8487,2.8435,2.8435,2.8436,0,2.7857,2.7888,2.794,2.7965,2.7989,2.8029,2.8056,2.8083,2.8111,2.816,2.8184,2.823,2.8268,2.8339,2.8371,2.8415,2.842,2.8443,2.8427,2.842,2.8422,2.842,2.8424,2.8446,2.8446,2.8447,2.8447,0,2.7902,2.7915,2.7954,2.7999,2.8031,2.8067,2.8104,2.8123,2.8157,2.8188,2.8234,2.8263,2.8322,2.8368,2.8415,2.844,2.8449,2.8452,2.846,2.8455,2.8444,2.8452,2.8385,2.845,2.845,2.845,2.8449,2.8449,2.793,2.7959,2.8,2.8044,2.8074,2.8108,2.8139,2.8167,2.8206,2.8256,2.827,2.8318,2.8359,2.8423,2.8449,2.8488,2.8485,2.8497,2.85,2.8502,2.8503,2.8438,2.8496,2.8496,2.8496,2.8496,2.8496,0,2.7976,2.8004,2.8044,2.8094,2.8129,2.8135,2.8176,2.8205,2.8247,2.8284,2.8322,2.8376,2.8421,2.8457,2.8503,2.8528,2.8533,2.8539,2.8538,2.8544,2.8503,2.8491,2.8534,2.8534,2.8534,2.8534,2.8534,2.8534,2.8004,2.8054,2.8073,2.8138,2.8166,2.8214,2.8237,2.8269,2.8298,2.8358,2.8396,2.8419,2.8456,2.8506,2.8547,2.8557,2.8574,2.8579,2.8589,2.855,2.8546,2.8542,2.8532,2.8582,2.8582,2.8627,2.8627,2.8627]},{"header":{"parameterUnit":"m.s-1","parameterCategory":1,"la1":30.2991,"la2":30.254,"lo1":-89.0895,"lo2":-89.0444,"dy":0.0017,"dx":0.0017,"nx":28,"ny":28,"refTime":"2023-08-08T21:00:00:Z","depth":0,"parameterNumber":3,"parameterNumberName":"V-component_of_WINDS"},"data":[0,0,0,0,0,0,0,0,0,0,0,0,0,0,0,0,0,0,0,0,0,0,0,0,0,0,0,0,0,0,0,0,0,0,0,0,0,0,0,0,0,0,0,0,0,0,0,0,0,0,0,0,0,0,0,0,0,0,0.8473,0.8473,0,0.8441,0.8441,0.844,0.8434,0.8434,0.8434,0.8434,0.84,0.8399,0.8398,0,0,0,0,0,0,0,0,0,0,0,0,0,0.8527,0.8526,0.8473,0.8473,0.8472,0.8441,0.8441,0.844,0.8434,0.8434,0.8434,0.8434,0.8401,0.8399,0.8398,0,0,0,0,0,0,0,0,0,0,0,0,0,0.85,0.8526,0.8473,0.8465,0.8464,0.8441,0.8441,0.844,0.8434,0.8434,0.8434,0.8435,0.8401,0.8399,0.8398,0.838,0,0,0.8393,0.8392,0,0,0,0,0,0,0,0,0.8502,0.8498,0.8467,0.8466,0.8464,0.8442,0.8447,0.842,0.8433,0.8445,0.8434,0.8435,0.8414,0.8411,0.8404,0.8378,0.8377,0.8392,0.8391,0.8391,0.839,0,0,0,0,0,0,0,0.8504,0.85,0.846,0.8466,0.8465,0.8463,0.8459,0.8442,0.8428,0.8444,0.8444,0.844,0.8413,0.8406,0.8403,0.8376,0.8393,0.8391,0.839,0.8389,0.8334,0.8334,0,0,0,0,0,0,0.8507,0.8501,0.8461,0.8459,0.8485,0.8462,0.8458,0.8449,0.8428,0.8425,0.844,0.844,0.8409,0.8405,0.8402,0.8379,0.8391,0.8389,0.8388,0.8335,0.8334,0.8333,0,0,0,0,0,0,0.8508,0.8504,0.8463,0.848,0.8475,0.846,0.845,0.8448,0.844,0.8425,0.8422,0.8435,0.8409,0.8404,0.8386,0.8378,0.8388,0.8387,0.8335,0.8334,0.8334,0.8334,0,0,0,0,0,0,0.851,0.8504,0.8497,0.848,0.8474,0.8447,0.845,0.8447,0.8438,0.8437,0.8419,0.8417,0.8409,0.8388,0.8384,0.8376,0.8385,0.8336,0.8335,0.8334,0.8335,0.8334,0.8333,0,0,0,0,0,0.8512,0.8499,0.8497,0.8492,0.8465,0.8446,0.8443,0.8434,0.8437,0.843,0.842,0.8417,0.838,0.8386,0.8381,0.8373,0.8336,0.8335,0.8334,0.8335,0.8334,0.8333,0,0,0,0,0,0,0.8515,0.8496,0.8494,0.8475,0.8462,0.8445,0.8436,0.8433,0.8419,0.8419,0.8409,0.8405,0.8387,0.8378,0.8385,0.8354,0.8358,0.8356,0.8361,0.8359,0.8358,0.8361,0.8384,0,0,0,0,0,0.8514,0.85,0.8484,0.8469,0.8463,0.8451,0.8442,0.8437,0.8423,0.8418,0.8406,0.8392,0.8378,0.8368,0.8354,0.8334,0.833,0.8326,0.8325,0.8324,0.8322,0.8311,0.8309,0.833,0.833,0.833,0,0,0.851,0.8498,0.849,0.8469,0.8459,0.8445,0.8446,0.8431,0.8421,0.8415,0.8397,0.8388,0.8372,0.8352,0.8343,0.8345,0.8315,0.8323,0.8322,0.8321,0.8309,0.8307,0.8306,0.833,0.833,0.833,0,0,0.8497,0.8487,0.8473,0.8462,0.8447,0.8439,0.8435,0.8419,0.8413,0.8394,0.839,0.8377,0.8352,0.8341,0.8332,0.8315,0.8311,0.831,0.8304,0.8294,0.8292,0.829,0.8284,0.8282,0.8309,0.8309,0.8309,0,0.8494,0.8474,0.8466,0.8451,0.8442,0.8437,0.8422,0.8412,0.8393,0.8386,0.8388,0.8357,0.8346,0.8323,0.8319,0.8312,0.8308,0.8312,0.8293,0.8291,0.829,0.8283,0.8281,0.8308,0.8308,0.8308,0.8308,0,0.8471,0.8457,0.8447,0.8429,0.8419,0.8404,0.8394,0.8384,0.838,0.8372,0.8352,0.8339,0.8322,0.8317,0.8312,0.8294,0.8295,0.8295,0.8298,0.8288,0.8281,0.8279,0.8308,0.8308,0.8308,0.8308,0,0,0.8458,0.8436,0.8433,0.8424,0.8407,0.8395,0.8381,0.8364,0.8356,0.8343,0.833,0.8309,0.8309,0.8299,0.8293,0.8284,0.827,0.8285,0.8284,0.8282,0.8249,0.8249,0.8246,0.8269,0.8268,0.8268,0.825,0,0.8442,0.8416,0.8409,0.8387,0.8373,0.8368,0.8355,0.8343,0.8335,0.8322,0.8313,0.8298,0.83,0.8294,0.8284,0.8274,0.8264,0.8275,0.8256,0.8255,0.826,0.8243,0.8242,0.8226,0.8248,0.8247,0.8247,0,0.842,0.8407,0.8384,0.8368,0.8362,0.8351,0.8335,0.8323,0.8309,0.8304,0.8293,0.8288,0.8272,0.8277,0.8254,0.8263,0.8254,0.8248,0.8247,0.8245,0.825,0.8239,0.8221,0.8219,0.8243,0.8244,0.8244,0,0.8413,0.8389,0.8372,0.8365,0.8346,0.8338,0.833,0.8317,0.8307,0.8294,0.8287,0.8272,0.8263,0.8251,0.8242,0.8246,0.8221,0.8225,0.8215,0.8216,0.821,0.821,0.8189,0.8205,0.8205,0.8205,0.8205,0,0.8395,0.8381,0.8368,0.8357,0.8341,0.8333,0.8317,0.8309,0.8297,0.8284,0.8279,0.8267,0.8256,0.8243,0.8236,0.8218,0.8215,0.821,0.8208,0.821,0.821,0.8204,0.8204,0.8205,0.8205,0.8205,0.8205,0,0.8384,0.8375,0.8356,0.834,0.8336,0.8324,0.8311,0.83,0.8292,0.8276,0.8272,0.8259,0.8244,0.8234,0.8213,0.8209,0.8189,0.8188,0.8194,0.8193,0.8184,0.8185,0.8158,0.8154,0.8173,0.8173,0.8173,0,0.8373,0.8362,0.8345,0.8337,0.8329,0.8315,0.8305,0.8297,0.8287,0.827,0.8262,0.8246,0.8232,0.8207,0.8196,0.818,0.8178,0.817,0.8176,0.8178,0.8178,0.8178,0.8177,0.8169,0.8169,0.8169,0.8168,0,0.8355,0.8351,0.8338,0.8323,0.8312,0.83,0.8287,0.8281,0.827,0.8259,0.8243,0.8233,0.8212,0.8196,0.818,0.8171,0.8168,0.8167,0.8164,0.8165,0.8169,0.8167,0.8191,0.8167,0.8167,0.8168,0.8168,0.8168,0.8343,0.8333,0.832,0.8305,0.8295,0.8284,0.8273,0.8264,0.8251,0.8233,0.8229,0.8212,0.8199,0.8176,0.8167,0.8154,0.8155,0.8151,0.8149,0.8148,0.8148,0.8172,0.8151,0.8151,0.8151,0.8151,0.8151,0,0.8324,0.8315,0.8302,0.8285,0.8274,0.8273,0.8259,0.8249,0.8235,0.8222,0.8209,0.8191,0.8176,0.8163,0.8147,0.8139,0.8137,0.8135,0.8135,0.8133,0.8148,0.8152,0.8137,0.8137,0.8137,0.8137,0.8137,0.8137,0.8313,0.8296,0.829,0.8268,0.8259,0.8243,0.8235,0.8225,0.8215,0.8195,0.8182,0.8175,0.8162,0.8145,0.8131,0.8128,0.8122,0.812,0.8117,0.8131,0.8132,0.8134,0.8137,0.8119,0.8119,0.8103,0.8103,0.8103]}]]